START_TIME,STEP,MOV.,M29,t_acc.,H22,t_acc.,H26,t_acc.,H30,t_acc.
1979-08-07 18:00:30.380 ,1,1,0.,24.0,0.,24.0,0.,24.0,0.,24.0
1979-08-07 18:00:54.380 ,2,1,0.,24.0,0.,24.0,0.,24.0,0.,24.0
1979-08-07 18:01:18.380 ,6,1,1.,24.0,0.,24.0,0.,24.0,0.,24.0
1979-08-07 18:01:42.380 ,5,1,0.,24.0,0.,24.0,0.,24.0,0.,24.0
1979-08-07 18:02:06.380 ,1,1,0.,24.0,0.,24.0,0.,24.0,0.,24.0
1979-08-07 18:02:30.380 ,2,1,0.,24.0,0.,24.0,0.,24.0,0.,24.0
1979-08-07 18:02:54.380 ,6,1,0.,24.0,0.,24.0,0.,24.0,0.,24.0
1979-08-07 18:03:18.380 ,5,1,0.,24.0,0.,24.0,0.,24.0,0.,24.0
1979-08-07 18:03:42.380 ,1,1,0.,24.0,0.,24.0,0.,24.0,0.,24.0
1979-08-07 18:04:06.370 ,2,1,0.,24.0,0.,24.0,0.,24.0,0.,24.0
1979-08-07 18:04:30.370 ,6,1,0.,24.0,0.,24.0,0.,24.0,0.,24.0
1979-08-07 18:04:54.370 ,5,1,0.,24.0,0.,24.0,0.,24.0,0.,24.0
1979-08-07 18:05:18.370 ,1,1,0.,24.0,0.,24.0,0.,24.0,0.,24.0
1979-08-07 18:05:42.370 ,0,0,0.,24.0,0.,24.0,0.,24.0,0.,24.0
1979-08-07 18:06:06.370 ,0,0,0.,24.0,0.,24.0,0.,24.0,0.,24.0
1979-08-07 18:06:30.370 ,5,1,0.,24.0,0.,24.0,0.,24.0,0.,24.0
1979-08-07 18:06:54.370 ,5,0,0.,24.0,0.,24.0,0.,24.0,0.,24.0
1979-08-07 18:07:18.370 ,4,1,0.,24.0,0.,24.0,0.,24.0,0.,24.0
1979-08-07 18:07:42.370 ,4,0,0.,24.0,0.,24.0,0.,24.0,0.,24.0
1979-08-07 18:08:06.370 ,3,1,0.,24.0,0.,24.0,0.,24.0,0.,24.0
1979-08-07 18:08:30.370 ,3,0,0.,24.0,0.,24.0,0.,24.0,0.,24.0
1979-08-07 18:08:54.370 ,2,1,0.,24.0,0.,24.0,0.,24.0,0.,24.0
1979-08-07 18:09:18.370 ,2,0,0.,24.0,0.,24.0,0.,24.0,0.,24.0
1979-08-07 18:09:42.370 ,1,1,0.,24.0,0.,24.0,0.,24.0,0.,24.0
1979-08-07 18:10:06.370 ,1,0,0.,24.0,0.,24.0,0.,24.0,0.,24.0
1979-08-07 18:10:30.370 ,0,1,0.,24.0,0.,24.0,0.,24.0,0.,24.0
1979-08-07 18:10:54.370 ,0,0,0.,24.0,0.,24.0,0.,24.0,0.,24.0
1979-08-07 18:11:18.370 ,0,1,0.,24.0,0.,24.0,0.,24.0,0.,24.0
1979-08-07 18:11:42.370 ,0,0,0.,24.0,0.,24.0,0.,24.0,0.,24.0
1979-08-07 18:12:06.370 ,1,1,0.,24.0,0.,24.0,0.,24.0,0.,24.0
1979-08-07 18:12:30.370 ,1,0,0.,24.0,0.,24.0,0.,24.0,0.,24.0
1979-08-07 18:12:54.370 ,2,1,0.,24.0,0.,24.0,0.,24.0,0.,24.0
1979-08-07 18:13:18.370 ,2,0,0.,24.0,0.,24.0,0.,24.0,0.,24.0
1979-08-07 18:13:42.370 ,3,1,0.,24.0,0.,24.0,0.,24.0,0.,24.0
1979-08-07 18:14:06.370 ,3,0,0.,24.0,0.,24.0,0.,24.0,0.,24.0
1979-08-07 18:14:30.370 ,4,1,0.,24.0,0.,24.0,0.,24.0,0.,24.0
1979-08-07 18:14:54.370 ,4,0,0.,24.0,0.,24.0,0.,24.0,0.,24.0
1979-08-07 18:15:18.370 ,5,1,0.,24.0,0.,24.0,0.,24.0,0.,24.0
1979-08-07 18:15:42.370 ,5,0,0.,24.0,0.,24.0,0.,24.0,0.,24.0
1979-08-07 18:16:06.370 ,6,1,0.,24.0,0.,24.0,0.,24.0,0.,24.0
1979-08-07 18:16:30.370 ,6,0,0.,24.0,0.,24.0,0.,24.0,0.,24.0
1979-08-07 18:16:54.370 ,7,1,0.,24.0,0.,24.0,0.,24.0,0.,24.0
1979-08-07 18:17:18.370 ,7,0,0.,24.0,0.,24.0,0.,24.0,0.,24.0
1979-08-07 18:17:42.370 ,7,1,0.,24.0,0.,24.0,0.,24.0,0.,24.0
1979-08-07 18:18:06.370 ,7,0,0.,24.0,0.,24.0,0.,24.0,0.,24.0
1979-08-07 18:18:30.370 ,6,1,0.,24.0,0.,24.0,0.,24.0,0.,24.0
1979-08-07 18:18:54.370 ,6,0,0.,24.0,0.,24.0,0.,24.0,0.,24.0
1979-08-07 18:19:18.370 ,5,1,0.,24.0,0.,24.0,0.,24.0,0.,24.0
1979-08-07 18:19:42.370 ,0,0,0.,24.0,0.,24.0,0.,24.0,0.,24.0
1979-08-07 18:20:54.370 ,0,0,0.,24.0,0.,24.0,0.,24.0,0.,24.0
1979-08-07 18:21:18.370 ,0,0,0.,24.0,0.,24.0,0.,24.0,0.,24.0
1979-08-07 18:21:42.370 ,2,1,0.,24.0,0.,24.0,0.,24.0,0.,24.0
1979-08-07 18:22:06.370 ,2,0,0.,24.0,0.,24.0,0.,24.0,0.,24.0
1979-08-07 18:23:18.370 ,0,0,0.,24.0,0.,24.0,0.,24.0,0.,24.0
1979-08-07 18:23:42.370 ,0,0,0.,24.0,0.,24.0,0.,24.0,0.,24.0
1979-08-07 18:24:06.370 ,0,1,0.,24.0,0.,24.0,0.,24.0,0.,24.0
1979-08-07 18:24:30.370 ,0,0,0.,24.0,0.,24.0,0.,24.0,0.,24.0
1979-08-07 18:30:30.370 ,0,0,0.,24.0,0.,24.0,0.,24.0,0.,24.0
1979-08-07 18:30:54.370 ,0,0,2.,24.0,0.,24.0,0.,24.0,0.,24.0
1979-08-07 18:32:06.370 ,0,0,0.,24.0,0.,24.0,0.,24.0,0.,24.0
1979-08-07 18:32:30.370 ,0,0,0.,24.0,0.,24.0,0.,24.0,0.,24.0
1979-08-07 18:34:30.370 ,0,0,0.,24.0,0.,24.0,0.,24.0,0.,24.0
1979-08-07 18:34:54.370 ,0,0,0.,24.0,0.,24.0,0.,24.0,0.,24.0
1979-08-07 18:35:18.370 ,1,1,0.,24.0,0.,24.0,0.,24.0,0.,24.0
1979-08-07 18:35:42.370 ,1,0,0.,24.0,0.,24.0,0.,24.0,0.,24.0
1979-08-07 18:36:54.370 ,0,0,0.,24.0,0.,24.0,0.,24.0,0.,24.0
1979-08-07 18:37:18.370 ,0,0,0.,24.0,0.,24.0,0.,24.0,0.,24.0
1979-08-07 18:38:30.370 ,0,0,0.,24.0,0.,24.0,0.,24.0,0.,24.0
1979-08-07 18:38:54.370 ,0,0,1.,24.0,0.,24.0,0.,24.0,0.,24.0
1979-08-07 18:38:54.370 ,0,0,1.,24.0,0.,24.0,0.,24.0,0.,24.0
1979-08-07 18:46:30.370 ,0,0,0.,24.0,0.,24.0,0.,24.0,0.,24.0
1979-08-07 18:46:54.370 ,1,1,0.,24.0,0.,24.0,0.,24.0,0.,24.0
1979-08-07 18:47:18.370 ,2,1,0.,24.0,0.,24.0,0.,24.0,0.,24.0
1979-08-07 18:47:42.370 ,6,1,0.,24.0,0.,24.0,0.,24.0,0.,24.0
1979-08-07 18:51:18.370 ,0,0,0.,24.0,0.,24.0,0.,24.0,0.,24.0
1979-08-07 18:51:42.370 ,1,1,0.,24.0,0.,24.0,0.,24.0,0.,24.0
1979-08-07 18:52:06.370 ,2,1,0.,24.0,0.,24.0,0.,24.0,0.,24.0
1979-08-07 18:52:30.370 ,6,1,0.,24.0,0.,24.0,0.,24.0,0.,24.0
1979-08-07 18:52:54.370 ,5,1,0.,24.0,0.,24.0,0.,24.0,0.,24.0
1979-08-07 18:53:18.370 ,1,1,0.,24.0,0.,24.0,0.,24.0,0.,24.0
1979-08-07 18:53:42.370 ,0,0,0.,24.0,0.,24.0,0.,24.0,0.,24.0
1979-08-07 18:54:06.370 ,0,0,0.,24.0,0.,24.0,0.,24.0,0.,24.0
1979-08-07 18:54:30.370 ,5,1,0.,24.0,0.,24.0,0.,24.0,0.,24.0
1979-08-07 18:54:54.370 ,5,0,0.,24.0,0.,24.0,0.,24.0,0.,24.0
1979-08-07 18:55:18.370 ,4,1,0.,24.0,0.,24.0,0.,24.0,0.,24.0
1979-08-07 18:55:42.370 ,4,0,0.,24.0,0.,24.0,0.,24.0,0.,24.0
1979-08-07 18:56:06.370 ,3,1,0.,24.0,0.,24.0,0.,24.0,0.,24.0
1979-08-07 18:56:30.370 ,3,0,0.,24.0,0.,24.0,0.,24.0,0.,24.0
1979-08-07 18:56:54.370 ,2,1,0.,24.0,0.,24.0,0.,24.0,0.,24.0
1979-08-07 18:57:18.370 ,2,0,0.,24.0,0.,24.0,0.,24.0,0.,24.0
1979-08-07 18:57:42.370 ,1,1,0.,24.0,0.,24.0,0.,24.0,0.,24.0
1979-08-07 18:58:06.370 ,1,0,0.,24.0,0.,24.0,0.,24.0,0.,24.0
1979-08-07 18:58:30.370 ,0,1,0.,24.0,0.,24.0,0.,24.0,0.,24.0
1979-08-07 18:58:54.370 ,0,0,0.,24.0,0.,24.0,0.,24.0,0.,24.0
1979-08-07 18:59:18.370 ,0,1,0.,24.0,0.,24.0,0.,24.0,0.,24.0
1979-08-07 18:59:42.370 ,0,0,0.,24.0,0.,24.0,0.,24.0,0.,24.0
1979-08-07 19:02:30.370 ,0,0,0.,24.0,0.,24.0,0.,24.0,0.,24.0
1979-08-07 19:02:54.370 ,0,0,0.,24.0,0.,24.0,0.,24.0,0.,24.0
1979-08-07 19:07:18.370 ,0,0,0.,24.0,0.,24.0,0.,24.0,0.,24.0
1979-08-07 19:07:42.370 ,0,0,0.,24.0,0.,24.0,0.,24.0,0.,24.0
1979-08-07 19:07:42.370 ,0,0,0.,24.0,0.,24.0,0.,24.0,0.,24.0
1979-08-07 19:08:06.370 ,4,1,0.,24.0,0.,24.0,0.,24.0,0.,24.0
1979-08-07 19:08:30.370 ,4,0,0.,24.0,0.,24.0,0.,24.0,0.,24.0
1979-08-07 19:08:54.370 ,3,1,0.,24.0,0.,24.0,0.,24.0,0.,24.0
1979-08-07 19:09:18.370 ,3,0,0.,24.0,0.,24.0,0.,24.0,0.,24.0
1979-08-07 19:09:42.370 ,2,1,0.,24.0,0.,24.0,0.,24.0,0.,24.0
1979-08-07 19:10:06.370 ,2,0,0.,24.0,0.,24.0,0.,24.0,0.,24.0
1979-08-07 19:11:18.370 ,0,0,0.,24.0,0.,24.0,0.,24.0,0.,24.0
1979-08-07 19:11:42.370 ,0,0,0.,24.0,0.,24.0,0.,24.0,0.,24.0
1979-08-07 19:12:06.370 ,0,1,0.,24.0,0.,24.0,0.,24.0,0.,24.0
1979-08-07 19:12:30.370 ,0,0,0.,24.0,0.,24.0,0.,24.0,0.,24.0
1979-08-07 19:13:42.370 ,0,0,0.,24.0,0.,24.0,0.,24.0,0.,24.0
1979-08-07 19:14:06.370 ,0,0,0.,24.0,0.,24.0,0.,24.0,0.,24.0
1979-08-07 19:14:30.370 ,3,1,0.,24.0,0.,24.0,0.,24.0,0.,24.0
1979-08-07 19:14:54.370 ,3,0,0.,24.0,0.,24.0,0.,24.0,0.,24.0
1979-08-07 19:15:18.370 ,4,1,0.,24.0,0.,24.0,0.,24.0,0.,24.0
1979-08-07 19:15:42.370 ,4,0,0.,24.0,0.,24.0,0.,24.0,0.,24.0
1979-08-07 19:16:06.370 ,5,1,0.,24.0,0.,24.0,0.,24.0,0.,24.0
1979-08-07 19:16:30.370 ,5,0,1.,24.0,0.,24.0,0.,24.0,0.,24.0
1979-08-07 19:16:54.370 ,6,1,0.,24.0,0.,24.0,0.,24.0,0.,24.0
1979-08-07 19:17:18.370 ,6,0,0.,24.0,0.,24.0,0.,24.0,0.,24.0
1979-08-07 19:17:42.370 ,7,1,0.,24.0,0.,24.0,0.,24.0,0.,24.0
1979-08-07 19:18:06.370 ,7,0,0.,24.0,0.,24.0,0.,24.0,0.,24.0
1979-08-07 19:18:30.370 ,7,1,0.,24.0,0.,24.0,0.,24.0,0.,24.0
1979-08-07 19:18:54.370 ,7,0,0.,24.0,0.,24.0,0.,24.0,0.,24.0
1979-08-07 19:19:18.370 ,6,1,0.,24.0,0.,24.0,0.,24.0,0.,24.0
1979-08-07 19:19:42.370 ,6,0,1.,24.0,0.,24.0,0.,24.0,0.,24.0
1979-08-07 19:20:06.370 ,5,1,0.,24.0,0.,24.0,0.,24.0,0.,24.0
1979-08-07 19:20:30.370 ,5,0,0.,24.0,0.,24.0,0.,24.0,0.,24.0
1979-08-07 19:21:42.370 ,0,0,0.,24.0,0.,24.0,0.,24.0,0.,24.0
1979-08-07 19:22:06.370 ,0,0,0.,24.0,0.,24.0,0.,24.0,0.,24.0
1979-08-07 19:22:30.370 ,2,1,0.,24.0,0.,24.0,0.,24.0,0.,24.0
1979-08-07 19:22:54.370 ,2,0,0.,24.0,0.,24.0,0.,24.0,0.,24.0
1979-08-07 19:24:54.370 ,0,0,1.,24.0,0.,24.0,0.,24.0,0.,24.0
1979-08-07 19:25:18.370 ,0,0,,0,,0,,0,,0
1979-08-07 19:25:18.370 ,0,0,0.,24.0,0.,24.0,0.,24.0,0.,24.0
1979-08-07 19:25:18.370 ,0,0,0.,24.0,0.,24.0,0.,24.0,0.,24.0
1979-08-07 19:25:42.370 ,1,1,0.,24.0,0.,24.0,0.,24.0,0.,24.0
1979-08-07 19:26:06.370 ,1,0,0.,24.0,0.,24.0,0.,24.0,0.,24.0
1979-08-07 19:26:30.370 ,2,1,0.,24.0,0.,24.0,0.,24.0,0.,24.0
1979-08-07 19:26:54.370 ,2,0,1.,24.0,0.,24.0,0.,24.0,0.,24.0
1979-08-07 19:27:18.370 ,3,1,0.,24.0,0.,24.0,0.,24.0,0.,24.0
1979-08-07 19:27:42.370 ,3,0,0.,24.0,0.,24.0,0.,24.0,0.,24.0
1979-08-07 19:28:06.370 ,4,1,0.,24.0,0.,24.0,0.,24.0,0.,24.0
1979-08-07 19:28:30.370 ,4,0,0.,24.0,0.,24.0,0.,24.0,0.,24.0
1979-08-07 19:28:54.370 ,5,1,0.,24.0,0.,24.0,0.,24.0,0.,24.0
1979-08-07 19:29:18.370 ,5,0,0.,24.0,0.,24.0,0.,24.0,0.,24.0
1979-08-07 19:31:18.370 ,0,0,0.,24.0,0.,24.0,0.,24.0,0.,24.0
1979-08-07 19:31:42.370 ,1,1,0.,24.0,0.,24.0,0.,24.0,0.,24.0
1979-08-07 19:32:06.370 ,2,1,0.,24.0,0.,24.0,0.,24.0,0.,24.0
1979-08-07 19:32:30.370 ,6,1,0.,24.0,0.,24.0,0.,24.0,0.,24.0
1979-08-07 19:32:54.370 ,5,1,0.,24.0,0.,24.0,0.,24.0,0.,24.0
1979-08-07 19:33:18.370 ,1,1,0.,24.0,0.,24.0,0.,24.0,0.,24.0
1979-08-07 19:33:42.370 ,2,1,0.,24.0,0.,24.0,0.,24.0,0.,24.0
1979-08-07 19:34:06.370 ,6,1,0.,24.0,0.,24.0,0.,24.0,0.,24.0
1979-08-07 19:34:30.370 ,5,1,0.,24.0,0.,24.0,0.,24.0,0.,24.0
1979-08-07 19:34:54.370 ,1,1,0.,24.0,0.,24.0,0.,24.0,0.,24.0
1979-08-07 19:35:18.370 ,2,1,0.,24.0,0.,24.0,0.,24.0,0.,24.0
1979-08-07 19:35:42.370 ,6,1,0.,24.0,0.,24.0,0.,24.0,0.,24.0
1979-08-07 19:36:06.370 ,5,1,0.,24.0,0.,24.0,0.,24.0,0.,24.0
1979-08-07 19:36:30.370 ,1,1,0.,24.0,0.,24.0,0.,24.0,0.,24.0
1979-08-07 19:36:54.370 ,2,1,0.,24.0,0.,24.0,0.,24.0,0.,24.0
1979-08-07 19:37:18.370 ,6,1,0.,24.0,0.,24.0,0.,24.0,0.,24.0
1979-08-07 19:37:42.370 ,5,1,0.,24.0,0.,24.0,0.,24.0,0.,24.0
1979-08-07 19:38:06.370 ,1,1,0.,24.0,0.,24.0,0.,24.0,0.,24.0
1979-08-07 19:38:30.370 ,2,1,1.,24.0,0.,24.0,0.,24.0,0.,24.0
1979-08-07 19:38:54.370 ,6,1,0.,24.0,0.,24.0,0.,24.0,0.,24.0
1979-08-07 19:39:18.370 ,5,1,1.,24.0,0.,24.0,0.,24.0,0.,24.0
1979-08-07 19:39:42.370 ,1,1,0.,24.0,0.,24.0,0.,24.0,0.,24.0
1979-08-07 19:40:06.370 ,2,1,0.,24.0,0.,24.0,0.,24.0,0.,24.0
1979-08-07 19:40:30.370 ,6,1,0.,24.0,0.,24.0,0.,24.0,0.,24.0
1979-08-07 19:40:54.370 ,5,1,0.,24.0,0.,24.0,0.,24.0,0.,24.0
1979-08-07 19:41:18.370 ,1,1,0.,24.0,0.,24.0,0.,24.0,0.,24.0
1979-08-07 19:41:42.370 ,0,0,0.,24.0,0.,24.0,0.,24.0,0.,24.0
1979-08-07 19:42:06.370 ,0,0,1.,24.0,0.,24.0,0.,24.0,0.,24.0
1979-08-07 19:42:30.370 ,5,1,0.,24.0,0.,24.0,0.,24.0,0.,24.0
1979-08-07 19:42:54.370 ,5,0,0.,24.0,0.,24.0,0.,24.0,0.,24.0
1979-08-07 19:43:18.370 ,4,1,0.,24.0,0.,24.0,0.,24.0,0.,24.0
1979-08-07 19:43:42.370 ,4,0,0.,24.0,0.,24.0,0.,24.0,0.,24.0
1979-08-07 19:44:06.370 ,3,1,0.,24.0,0.,24.0,0.,24.0,0.,24.0
1979-08-07 19:44:30.370 ,3,0,0.,24.0,0.,24.0,0.,24.0,0.,24.0
1979-08-07 19:44:54.370 ,2,1,0.,24.0,0.,24.0,0.,24.0,0.,24.0
1979-08-07 19:45:18.370 ,2,0,0.,24.0,0.,24.0,0.,24.0,0.,24.0
1979-08-07 19:45:42.370 ,1,1,0.,24.0,0.,24.0,0.,24.0,0.,24.0
1979-08-07 19:46:06.370 ,1,0,0.,24.0,0.,24.0,0.,24.0,0.,24.0
1979-08-07 19:46:30.370 ,0,1,0.,24.0,0.,24.0,0.,24.0,0.,24.0
1979-08-07 19:46:54.370 ,0,0,0.,24.0,0.,24.0,0.,24.0,0.,24.0
1979-08-07 19:47:18.370 ,0,1,0.,24.0,0.,24.0,0.,24.0,0.,24.0
1979-08-07 19:47:42.370 ,0,0,0.,24.0,0.,24.0,0.,24.0,0.,24.0
1979-08-07 19:48:06.370 ,1,1,0.,24.0,0.,24.0,0.,24.0,0.,24.0
1979-08-07 19:48:30.370 ,1,0,1.,24.0,0.,24.0,0.,24.0,0.,24.0
1979-08-07 19:48:54.370 ,2,1,0.,24.0,0.,24.0,0.,24.0,0.,24.0
1979-08-07 19:49:18.370 ,2,0,0.,24.0,0.,24.0,0.,24.0,0.,24.0
1979-08-07 19:49:42.370 ,3,1,0.,24.0,0.,24.0,0.,24.0,0.,24.0
1979-08-07 19:50:06.370 ,3,0,0.,24.0,0.,24.0,0.,24.0,0.,24.0
1979-08-07 19:50:30.370 ,4,1,0.,24.0,0.,24.0,0.,24.0,0.,24.0
1979-08-07 19:50:54.370 ,4,0,0.,24.0,0.,24.0,0.,24.0,0.,24.0
1979-08-07 19:51:18.370 ,5,1,0.,24.0,0.,24.0,0.,24.0,0.,24.0
1979-08-07 19:51:42.370 ,5,0,0.,24.0,0.,24.0,0.,24.0,0.,24.0
1979-08-07 19:52:06.370 ,6,1,0.,24.0,0.,24.0,0.,24.0,0.,24.0
1979-08-07 19:52:30.370 ,6,0,0.,24.0,0.,24.0,0.,24.0,0.,24.0
1979-08-07 19:52:54.370 ,7,1,0.,24.0,0.,24.0,0.,24.0,0.,24.0
1979-08-07 19:53:18.370 ,7,0,0.,24.0,0.,24.0,0.,24.0,0.,24.0
1979-08-07 19:53:42.370 ,7,1,1.,24.0,0.,24.0,0.,24.0,0.,24.0
1979-08-07 19:54:06.370 ,7,0,0.,24.0,0.,24.0,0.,24.0,0.,24.0
1979-08-07 19:54:30.370 ,6,1,0.,24.0,0.,24.0,0.,24.0,0.,24.0
1979-08-07 19:54:54.370 ,6,0,0.,24.0,0.,24.0,0.,24.0,0.,24.0
1979-08-07 19:55:18.370 ,5,1,0.,24.0,0.,24.0,0.,24.0,0.,24.0
1979-08-07 19:55:42.370 ,5,0,0.,24.0,0.,24.0,0.,24.0,0.,24.0
1979-08-07 19:56:06.370 ,4,1,0.,24.0,0.,24.0,0.,24.0,0.,24.0
1979-08-07 19:56:30.370 ,4,0,0.,24.0,0.,24.0,0.,24.0,0.,24.0
1979-08-07 19:56:54.370 ,3,1,0.,24.0,0.,24.0,0.,24.0,0.,24.0
1979-08-07 19:57:18.370 ,3,0,0.,24.0,0.,24.0,0.,24.0,0.,24.0
1979-08-07 19:57:42.370 ,2,1,0.,24.0,0.,24.0,0.,24.0,0.,24.0
1979-08-07 19:58:06.370 ,2,0,0.,24.0,0.,24.0,0.,24.0,0.,24.0
1979-08-07 19:58:30.370 ,1,1,0.,24.0,0.,24.0,0.,24.0,0.,24.0
1979-08-07 19:58:54.370 ,1,0,0.,24.0,0.,24.0,0.,24.0,0.,24.0
1979-08-07 19:59:18.370 ,0,1,0.,24.0,0.,24.0,0.,24.0,0.,24.0
1979-08-07 19:59:42.370 ,0,0,0.,24.0,0.,24.0,0.,24.0,0.,24.0
1979-08-07 20:00:06.370 ,0,1,0.,24.0,0.,24.0,0.,24.0,0.,24.0
1979-08-07 20:00:30.370 ,0,0,0.,24.0,0.,24.0,0.,24.0,0.,24.0
1979-08-07 20:00:54.370 ,1,1,0.,24.0,0.,24.0,0.,24.0,0.,24.0
1979-08-07 20:01:18.370 ,1,0,0.,24.0,0.,24.0,0.,24.0,0.,24.0
1979-08-07 20:01:42.370 ,2,1,0.,24.0,0.,24.0,0.,24.0,0.,24.0
1979-08-07 20:02:06.370 ,2,0,0.,24.0,0.,24.0,0.,24.0,0.,24.0
1979-08-07 20:02:30.370 ,3,1,0.,24.0,0.,24.0,0.,24.0,0.,24.0
1979-08-07 20:02:54.370 ,3,0,0.,24.0,0.,24.0,0.,24.0,0.,24.0
1979-08-07 20:03:18.370 ,4,1,0.,24.0,0.,24.0,0.,24.0,0.,24.0
1979-08-07 20:03:42.370 ,4,0,0.,24.0,0.,24.0,0.,24.0,0.,24.0
1979-08-07 20:04:06.370 ,5,1,0.,24.0,0.,24.0,0.,24.0,0.,24.0
1979-08-07 20:04:30.370 ,5,0,0.,24.0,0.,24.0,0.,24.0,0.,24.0
1979-08-07 20:04:54.370 ,6,1,0.,24.0,0.,24.0,0.,24.0,0.,24.0
1979-08-07 20:05:18.370 ,6,0,0.,24.0,0.,24.0,0.,24.0,0.,24.0
1979-08-07 20:05:42.370 ,7,1,0.,24.0,0.,24.0,0.,24.0,0.,24.0
1979-08-07 20:06:06.370 ,7,0,0.,24.0,0.,24.0,0.,24.0,0.,24.0
1979-08-07 20:06:30.370 ,7,1,0.,24.0,0.,24.0,0.,24.0,0.,24.0
1979-08-07 20:06:54.370 ,7,0,0.,24.0,0.,24.0,0.,24.0,0.,24.0
1979-08-07 20:07:18.370 ,6,1,0.,24.0,0.,24.0,0.,24.0,0.,24.0
1979-08-07 20:07:42.370 ,6,0,0.,24.0,0.,24.0,0.,24.0,0.,24.0
1979-08-07 20:08:06.370 ,5,1,0.,24.0,0.,24.0,0.,24.0,0.,24.0
1979-08-07 20:08:30.370 ,5,0,0.,24.0,0.,24.0,0.,24.0,0.,24.0
1979-08-07 20:08:54.370 ,4,1,0.,24.0,0.,24.0,0.,24.0,0.,24.0
1979-08-07 20:09:18.370 ,4,0,0.,24.0,0.,24.0,0.,24.0,0.,24.0
1979-08-07 20:09:42.370 ,3,1,0.,24.0,0.,24.0,0.,24.0,0.,24.0
1979-08-07 20:10:06.370 ,3,0,0.,24.0,0.,24.0,0.,24.0,0.,24.0
1979-08-07 20:10:30.370 ,2,1,0.,24.0,0.,24.0,0.,24.0,0.,24.0
1979-08-07 20:10:54.370 ,2,0,0.,24.0,0.,24.0,0.,24.0,0.,24.0
1979-08-07 20:11:18.370 ,1,1,1.,24.0,0.,24.0,0.,24.0,0.,24.0
1979-08-07 20:11:42.370 ,1,0,0.,24.0,0.,24.0,0.,24.0,0.,24.0
1979-08-07 20:12:06.370 ,0,1,0.,24.0,0.,24.0,0.,24.0,0.,24.0
1979-08-07 20:12:30.370 ,0,0,0.,24.0,0.,24.0,0.,24.0,0.,24.0
1979-08-07 20:12:54.370 ,0,1,0.,24.0,0.,24.0,0.,24.0,0.,24.0
1979-08-07 20:13:18.370 ,0,0,0.,24.0,0.,24.0,0.,24.0,0.,24.0
1979-08-07 20:13:42.370 ,1,1,0.,24.0,0.,24.0,0.,24.0,0.,24.0
1979-08-07 20:14:06.370 ,1,0,0.,24.0,0.,24.0,0.,24.0,0.,24.0
1979-08-07 20:14:30.370 ,2,1,0.,24.0,0.,24.0,0.,24.0,0.,24.0
1979-08-07 20:14:54.370 ,2,0,0.,24.0,0.,24.0,0.,24.0,0.,24.0
1979-08-07 20:15:18.370 ,3,1,0.,24.0,0.,24.0,0.,24.0,0.,24.0
1979-08-07 20:15:42.370 ,3,0,0.,24.0,0.,24.0,0.,24.0,0.,24.0
1979-08-07 20:16:06.370 ,4,1,0.,24.0,0.,24.0,0.,24.0,0.,24.0
1979-08-07 20:16:30.370 ,4,0,0.,24.0,0.,24.0,0.,24.0,0.,24.0
1979-08-07 20:16:54.370 ,5,1,0.,24.0,0.,24.0,0.,24.0,0.,24.0
1979-08-07 20:17:18.370 ,5,0,0.,24.0,0.,24.0,0.,24.0,0.,24.0
1979-08-07 20:17:42.370 ,6,1,0.,24.0,0.,24.0,0.,24.0,0.,24.0
1979-08-07 20:18:06.370 ,6,0,0.,24.0,0.,24.0,0.,24.0,0.,24.0
1979-08-07 20:18:30.370 ,7,0,0.,24.0,0.,24.0,0.,24.0,0.,24.0
1979-08-07 20:18:54.370 ,7,0,0.,24.0,0.,24.0,0.,24.0,0.,24.0
1979-08-07 20:19:18.370 ,5,1,0.,24.0,0.,24.0,0.,24.0,0.,24.0
1979-08-07 20:19:42.370 ,1,1,0.,24.0,0.,24.0,0.,24.0,0.,24.0
1979-08-07 20:20:06.370 ,2,1,0.,24.0,0.,24.0,0.,24.0,0.,24.0
1979-08-07 20:20:30.370 ,6,1,0.,24.0,0.,24.0,0.,24.0,0.,24.0
1979-08-07 20:20:54.370 ,5,1,0.,24.0,0.,24.0,0.,24.0,0.,24.0
1979-08-07 20:21:18.370 ,1,1,0.,24.0,0.,24.0,0.,24.0,0.,24.0
1979-08-07 20:21:42.370 ,2,1,0.,24.0,0.,24.0,0.,24.0,0.,24.0
1979-08-07 20:22:06.370 ,6,1,0.,24.0,0.,24.0,0.,24.0,0.,24.0
1979-08-07 20:22:30.370 ,5,1,0.,24.0,0.,24.0,0.,24.0,0.,24.0
1979-08-07 20:22:54.370 ,1,1,0.,24.0,0.,24.0,0.,24.0,0.,24.0
1979-08-07 20:23:18.370 ,2,1,0.,24.0,0.,24.0,0.,24.0,0.,24.0
1979-08-07 20:23:42.370 ,6,1,0.,24.0,0.,24.0,0.,24.0,0.,24.0
1979-08-07 20:24:06.370 ,5,1,0.,24.0,0.,24.0,0.,24.0,0.,24.0
1979-08-07 20:24:30.370 ,1,1,0.,24.0,0.,24.0,0.,24.0,0.,24.0
1979-08-07 20:24:54.370 ,2,1,0.,24.0,0.,24.0,0.,24.0,0.,24.0
1979-08-07 20:25:18.370 ,6,1,0.,24.0,0.,24.0,0.,24.0,0.,24.0
1979-08-07 20:25:42.370 ,5,1,0.,24.0,0.,24.0,0.,24.0,0.,24.0
1979-08-07 20:26:06.370 ,1,1,0.,24.0,0.,24.0,0.,24.0,0.,24.0
1979-08-07 20:26:30.370 ,2,1,0.,24.0,0.,24.0,0.,24.0,0.,24.0
1979-08-07 20:26:54.370 ,6,1,0.,24.0,0.,24.0,0.,24.0,0.,24.0
1979-08-07 20:27:18.370 ,5,1,0.,24.0,0.,24.0,0.,24.0,0.,24.0
1979-08-07 20:27:42.370 ,1,1,0.,24.0,0.,24.0,0.,24.0,0.,24.0
1979-08-07 20:28:06.370 ,2,1,0.,24.0,0.,24.0,0.,24.0,0.,24.0
1979-08-07 20:28:30.370 ,6,1,0.,24.0,0.,24.0,0.,24.0,0.,24.0
1979-08-07 20:28:54.370 ,5,1,0.,24.0,0.,24.0,0.,24.0,0.,24.0
1979-08-07 20:29:18.370 ,1,1,0.,24.0,0.,24.0,0.,24.0,0.,24.0
1979-08-07 20:29:42.370 ,0,0,0.,24.0,0.,24.0,0.,24.0,0.,24.0
1979-08-07 20:30:06.370 ,0,0,0.,24.0,0.,24.0,0.,24.0,0.,24.0
1979-08-07 20:30:30.370 ,5,1,0.,24.0,0.,24.0,0.,24.0,0.,24.0
1979-08-07 20:30:54.370 ,5,0,0.,24.0,0.,24.0,0.,24.0,0.,24.0
1979-08-07 20:31:18.370 ,4,1,0.,24.0,0.,24.0,0.,24.0,0.,24.0
1979-08-07 20:31:42.370 ,4,0,0.,24.0,0.,24.0,0.,24.0,0.,24.0
1979-08-07 20:32:06.370 ,3,1,0.,24.0,0.,24.0,0.,24.0,0.,24.0
1979-08-07 20:32:30.370 ,3,0,0.,24.0,0.,24.0,0.,24.0,0.,24.0
1979-08-07 20:32:54.370 ,2,1,0.,24.0,0.,24.0,0.,24.0,0.,24.0
1979-08-07 20:33:18.370 ,2,0,0.,24.0,0.,24.0,0.,24.0,0.,24.0
1979-08-07 20:33:42.370 ,1,1,0.,24.0,0.,24.0,0.,24.0,0.,24.0
1979-08-07 20:34:06.370 ,1,0,0.,24.0,0.,24.0,0.,24.0,0.,24.0
1979-08-07 20:34:30.370 ,0,1,0.,24.0,0.,24.0,0.,24.0,0.,24.0
1979-08-07 20:34:54.370 ,0,0,0.,24.0,0.,24.0,0.,24.0,0.,24.0
1979-08-07 20:35:18.370 ,0,1,0.,24.0,0.,24.0,0.,24.0,0.,24.0
1979-08-07 20:35:42.370 ,0,0,0.,24.0,0.,24.0,0.,24.0,0.,24.0
1979-08-07 20:36:06.370 ,1,1,0.,24.0,0.,24.0,0.,24.0,0.,24.0
1979-08-07 20:36:30.370 ,1,0,0.,24.0,0.,24.0,0.,24.0,0.,24.0
1979-08-07 20:36:54.370 ,2,1,0.,24.0,0.,24.0,0.,24.0,0.,24.0
1979-08-07 20:37:18.370 ,2,0,1.,24.0,0.,24.0,0.,24.0,0.,24.0
1979-08-07 20:37:42.370 ,3,1,0.,24.0,0.,24.0,0.,24.0,0.,24.0
1979-08-07 20:38:06.370 ,3,0,0.,24.0,0.,24.0,0.,24.0,0.,24.0
1979-08-07 20:38:30.370 ,4,1,0.,24.0,0.,24.0,0.,24.0,0.,24.0
1979-08-07 20:38:54.370 ,4,0,0.,24.0,0.,24.0,0.,24.0,0.,24.0
1979-08-07 20:39:18.370 ,5,1,0.,24.0,0.,24.0,0.,24.0,0.,24.0
1979-08-07 20:39:42.370 ,5,0,0.,24.0,0.,24.0,0.,24.0,0.,24.0
1979-08-07 20:40:06.370 ,6,1,0.,24.0,0.,24.0,0.,24.0,0.,24.0
1979-08-07 20:40:30.370 ,6,0,0.,24.0,0.,24.0,0.,24.0,0.,24.0
1979-08-07 20:40:54.370 ,7,1,0.,24.0,0.,24.0,0.,24.0,0.,24.0
1979-08-07 20:41:18.370 ,7,0,0.,24.0,0.,24.0,0.,24.0,0.,24.0
1979-08-07 20:41:42.370 ,7,1,0.,24.0,0.,24.0,0.,24.0,0.,24.0
1979-08-07 20:42:06.370 ,7,0,0.,24.0,0.,24.0,0.,24.0,0.,24.0
1979-08-07 20:42:30.370 ,6,1,0.,24.0,0.,24.0,0.,24.0,0.,24.0
1979-08-07 20:42:54.370 ,6,0,0.,24.0,0.,24.0,0.,24.0,0.,24.0
1979-08-07 20:43:18.370 ,5,1,0.,24.0,0.,24.0,0.,24.0,0.,24.0
1979-08-07 20:43:42.370 ,5,0,0.,24.0,0.,24.0,0.,24.0,0.,24.0
1979-08-07 20:44:06.370 ,4,1,0.,24.0,0.,24.0,0.,24.0,0.,24.0
1979-08-07 20:44:30.370 ,4,0,0.,24.0,0.,24.0,0.,24.0,0.,24.0
1979-08-07 20:44:54.370 ,3,1,0.,24.0,0.,24.0,0.,24.0,0.,24.0
1979-08-07 20:45:18.370 ,3,0,0.,24.0,0.,24.0,0.,24.0,0.,24.0
1979-08-07 20:45:42.370 ,2,1,0.,24.0,0.,24.0,0.,24.0,0.,24.0
1979-08-07 20:46:06.370 ,2,0,0.,24.0,0.,24.0,0.,24.0,0.,24.0
1979-08-07 20:46:30.370 ,1,1,0.,24.0,0.,24.0,0.,24.0,0.,24.0
1979-08-07 20:46:54.370 ,1,0,0.,24.0,0.,24.0,0.,24.0,0.,24.0
1979-08-07 20:47:18.370 ,0,1,0.,24.0,0.,24.0,0.,24.0,0.,24.0
1979-08-07 20:47:42.370 ,0,0,0.,24.0,0.,24.0,0.,24.0,0.,24.0
1979-08-07 20:48:06.370 ,0,1,0.,24.0,0.,24.0,0.,24.0,0.,24.0
1979-08-07 20:48:30.370 ,0,0,0.,24.0,0.,24.0,0.,24.0,0.,24.0
1979-08-07 20:48:54.370 ,1,1,0.,24.0,0.,24.0,0.,24.0,0.,24.0
1979-08-07 20:49:18.370 ,1,0,0.,24.0,0.,24.0,0.,24.0,0.,24.0
1979-08-07 20:49:42.370 ,2,1,0.,24.0,0.,24.0,0.,24.0,0.,24.0
1979-08-07 20:50:06.370 ,2,0,0.,24.0,0.,24.0,0.,24.0,0.,24.0
1979-08-07 20:50:30.370 ,3,1,0.,24.0,0.,24.0,0.,24.0,0.,24.0
1979-08-07 20:50:54.370 ,3,0,0.,24.0,0.,24.0,0.,24.0,0.,24.0
1979-08-07 20:51:18.370 ,4,1,0.,24.0,0.,24.0,0.,24.0,0.,24.0
1979-08-07 20:51:42.370 ,4,0,0.,24.0,0.,24.0,0.,24.0,0.,24.0
1979-08-07 20:52:06.370 ,5,1,0.,24.0,0.,24.0,0.,24.0,0.,24.0
1979-08-07 20:52:30.370 ,5,0,0.,24.0,0.,24.0,0.,24.0,0.,24.0
1979-08-07 20:52:54.370 ,6,1,1.,24.0,0.,24.0,0.,24.0,0.,24.0
1979-08-07 20:53:18.370 ,6,0,1.,24.0,0.,24.0,0.,24.0,0.,24.0
1979-08-07 20:53:42.370 ,7,1,0.,24.0,0.,24.0,0.,24.0,0.,24.0
1979-08-07 20:54:06.370 ,7,0,0.,24.0,0.,24.0,0.,24.0,0.,24.0
1979-08-07 20:54:30.370 ,7,1,0.,24.0,0.,24.0,0.,24.0,0.,24.0
1979-08-07 20:54:54.370 ,7,0,0.,24.0,0.,24.0,0.,24.0,0.,24.0
1979-08-07 20:55:18.370 ,6,1,0.,24.0,0.,24.0,0.,24.0,0.,24.0
1979-08-07 20:55:42.370 ,6,0,0.,24.0,0.,24.0,0.,24.0,0.,24.0
1979-08-07 20:56:06.370 ,5,1,0.,24.0,0.,24.0,0.,24.0,0.,24.0
1979-08-07 20:56:30.370 ,5,0,1.,24.0,0.,24.0,0.,24.0,0.,24.0
1979-08-07 20:56:54.370 ,4,1,0.,24.0,0.,24.0,0.,24.0,0.,24.0
1979-08-07 20:57:18.370 ,4,0,0.,24.0,0.,24.0,0.,24.0,0.,24.0
1979-08-07 20:57:42.370 ,3,1,0.,24.0,0.,24.0,0.,24.0,0.,24.0
1979-08-07 20:58:06.370 ,3,0,0.,24.0,0.,24.0,0.,24.0,0.,24.0
1979-08-07 20:58:30.370 ,2,1,0.,24.0,0.,24.0,0.,24.0,0.,24.0
1979-08-07 20:58:54.370 ,2,0,0.,24.0,0.,24.0,0.,24.0,0.,24.0
1979-08-07 20:59:18.360 ,1,1,0.,24.0,0.,24.0,0.,24.0,0.,24.0
1979-08-07 20:59:42.360 ,1,0,0.,24.0,0.,24.0,0.,24.0,0.,24.0
1979-08-07 21:00:06.370 ,0,1,0.,24.0,0.,24.0,0.,24.0,0.,24.0
